Home > Weather > Guadalajara > Past weeks

Flag for Mexico Past Weather in Guadalajara, Jalisco, Mexico — Yesterday and Last 2 Weeks

Now
63 °F

Clear.


Feels Like: 63 °F
Forecast: 62 / 84 °F
Wind: No wind

Location: Don Miguel / Guadalaj

Current Time: Jun 25, 2016 at 7:25:18 AM

Latest Report: Jun 25, 2016 at 6:51 AM


Visibility: 7 mi

Pressure: 29.85 "Hg (24.89 "Hg at 1543m altitude)

Humidity: 88%

Dew Point: 59 °F

Location of GuadalajaraLocation

Past Weather in Guadalajara — Graph

°F

Guadalajara Temperature Yesterday

Maximum temperature yesterday: 82 °F (at 5:45 PM)
Minimum temperature yesterday: 61 °F (at 2:46 AM)
Average temperature yesterday: 72 °F

High & Low Weather Summary for the Past Weeks

 TemperatureHumidityPressure
High90 °F (Jun 11, 4:48 PM)94% (Jun 12, 1:50 AM)30.31 "Hg (Jun 12, 1:50 AM)
Low59 °F (Jun 19, 6:51 AM)19% (Jun 10, 5:47 PM)29.70 "Hg (Jun 11, 6:49 PM)
Average71 °F64%30.10 "Hg
* Reported Jun 10 5:53 AM — Jun 25 5:55 AM, Guadalajara, Weather by CustomWeather, © 2016

Note: Actual official high and low records may vary slightly from our data, if they occured in-between our weather recording intervals... More about our weather records

Advertising

Guadalajara Weather History for the Previous 24 Hours

Scroll right to see more
 ConditionsComfort  
Time TempWeatherWind HumidityBarometerVisibility
5:55 AM
Sat, Jun 25
63 °FPassing clouds.No wind88%30.16 "Hg10 mi
4:55 AM64 °FPassing clouds.No wind88%30.15 "Hg10 mi
3:55 AM64 °FPartly cloudy.No wind88%30.16 "Hg10 mi
3:03 AM66 °FPartly cloudy.No wind83%30.18 "Hg10 mi
2:20 AM66 °FPartly cloudy.No wind83%30.19 "Hg10 mi
12:54 AM70 °FPartly cloudy.3 mph78%29.85 "Hg10 mi
11:52 PM
Fri, Jun 24
70 °FPartly cloudy.7 mph73%30.19 "Hg10 mi
10:54 PM72 °FPartly cloudy.8 mph69%30.16 "Hg10 mi
9:53 PM72 °FPartly cloudy.5 mph65%29.85 "Hg10 mi
8:46 PM75 °FBroken clouds.12 mph50%30.14 "Hg10 mi
7:50 PM79 °FBroken clouds.6 mph39%30.11 "Hg10 mi
5:45 PM82 °FPartly sunny.7 mph37%30.11 "Hg10 mi
4:49 PM81 °FBroken clouds.No wind37%30.13 "Hg10 mi
3:50 PM81 °FScattered clouds.5 mph42%29.82 "Hg10 mi
2:51 PM79 °FScattered clouds.5 mph48%30.19 "Hg8 mi
1:50 PM77 °FScattered clouds.6 mph57%30.22 "Hg7 mi
12:49 PM75 °FPartly sunny.3 mph54%29.93 "Hg7 mi
11:52 AM72 °FPartly sunny.No wind65%30.27 "Hg7 mi
10:52 AM68 °FPartly sunny.No wind73%30.28 "Hg7 mi
9:49 AM70 °FPartly sunny.No wind69%29.98 "Hg7 mi
8:49 AM64 °FPartly sunny.5 mph78%30.27 "Hg10 mi
7:48 AM61 °FPassing clouds.No wind83%30.26 "Hg10 mi
Weather by CustomWeather, © 2016

See weather overviewHow to use our weather pages